"Pseudo-MPEC" for ZTF01sU

Created 2018 Dec 11 20:18:08 UT using Find_Orb

Click here for an explanation of pseudo-MPECs

 
 Astrometry: 
     ZTF01sU  C2018 12 04.22004902 53 58.08 -03 22 13.6          18.65RUNEOCPI41
     ZTF01sU  C2018 12 04.22039602 53 56.00 -03 22 00.9          18.65RUNEOCPI41
     ZTF01sU  C2018 12 04.25453402 50 41.58 -03 00 40.4          18.57RUNEOCPI41
     ZTF01sU  C2018 12 04.25488102 50 39.62 -03 00 28.3          18.57RUNEOCPI41

Station data:
(I41) Palomar Mountain--ZTF  (N33.357340 W116.859780)  US/California. 1.2-m
   f/2.44 Oschin Schmidt + CCD.

Orbital elements:  ZTF01sU
   Perigee 2018 Dec 5.322625 +/- 59.9 TT =  7:44:34 (JD 2458457.822625)
Epoch 2018 Dec  4.0 TT = JDT 2458456.5                        AutoNEOCP
M 190.64513871 +/- 100              (J2000 equator)
n 128.04452213 +/- 0.773            Peri.  172.86513 +/- 80
a 84145.2303 +/- 7.61e+7            Node    41.18827 +/- 70
e   0.9173232 +/- 0.238             Incl.  135.50661 +/- 52
P4048.52m/2.811d           H 32.6   G  0.15   U 12.6  SR
q 6956.85121 +/- 4.89e+7    Q 161333.609 +/- 1.71e+9
From 4 observations 2018 Dec. 4 (50.2 min); mean residual 0".56
Residuals in arcseconds: 
181204 I41  .95+  .06+    181204 I41  .23-  .55+    
181204 I41  .95-  .06-    181204 I41  .24+  .55-    

Ephemerides (geocentric):
Date (UTC) HH   RA              Dec         delta   r     elong  mag " sig PA
---- -- -- --  -------------   -----------  ------ ------ -----  --- ---- ---
2018 12 11 20  03 26 55.826   -10 05 32.93  146847 .98537 137.7 19.2  50d   6
2018 12 11 21  03 24 56.726   -09 36 39.08  149138 .98537 137.8 19.2  50d   6
2018 12 11 22  03 23 01.405   -09 08 32.71  151217 .98538 137.8 19.2  51d   6
2018 12 11 23  03 21 09.367   -08 41 07.52  153090 .98538 137.8 19.3  51d   6
2018 12 12 00  03 19 20.172   -08 14 17.86  154761 .98539 137.8 19.3  51d   6
2018 12 12 01  03 17 33.428   -07 47 58.66  156236 .98539 137.8 19.3  51d   6
2018 12 12 02  03 15 48.783   -07 22 05.29  157517 .98539 137.8 19.3  51d   6
2018 12 12 03  03 14 05.915   -06 56 33.50  158606 .98539 137.8 19.4  51d   6
2018 12 12 04  03 12 24.527   -06 31 19.31  159508 .98539 137.8 19.4  51d   6
2018 12 12 05  03 10 44.343   -06 06 19.02  160224 .98539 137.8 19.4  46d   6
2018 12 12 06  03 09 05.103   -05 41 29.07  160754 .98539 137.7 19.4  46d   6
2018 12 12 07  03 07 26.559   -05 16 46.05  161102 .98538 137.7 19.4  46d   6
2018 12 12 08  03 05 48.471   -04 52 06.63  161266 .98538 137.6 19.4  46d   6
2018 12 12 09  03 04 10.604   -04 27 27.54  161249 .98537 137.6 19.4  46d   6
2018 12 12 10  03 02 32.726   -04 02 45.51  161049 .98537 137.5 19.4  46d   6
2018 12 12 11  03 00 54.605   -03 37 57.24  160666 .98536 137.4 19.4  46d   6
2018 12 12 12  02 59 16.005   -03 12 59.35  160099 .98535 137.3 19.4  46d   6
2018 12 12 13  02 57 36.682   -02 47 48.35  159347 .98534 137.2 19.4  47d   6
2018 12 12 14  02 55 56.383   -02 22 20.59  158409 .98533 137.2 19.4  47d   6
2018 12 12 15  02 54 14.841   -01 56 32.19  157282 .98532 137.0 19.4  47d   6
2018 12 12 16  02 52 31.770   -01 30 19.03  155964 .98530 136.9 19.3  47d   6
2018 12 12 17  02 50 46.863   -01 03 36.63  154451 .98529 136.8 19.3  47d   6
2018 12 12 18  02 48 59.782   -00 36 20.09  152740 .98528 136.7 19.3  47d   6
2018 12 12 19  02 47 10.157   -00 08 24.01  150827 .98526 136.5 19.3  47d   6
2018 12 12 20  02 45 17.573   +00 20 17.64  148707 .98524 136.4 19.3  47d   6
2018 12 12 21  02 43 21.560   +00 49 51.66  146374 .98522 136.2 19.2  47d   6
2018 12 12 22  02 41 21.584   +01 20 25.78  143821 .98521 136.0 19.2  47d   6
2018 12 12 23  02 39 17.027   +01 52 08.90  141042 .98519 135.8 19.2  47d   6
2018 12 13 00  02 37 07.170   +02 25 11.36  138027 .98516 135.6 19.1  47d   6
2018 12 13 01  02 34 51.160   +02 59 45.32  134767 .98514 135.4 19.1  47d   6
2018 12 13 02  02 32 27.981   +03 36 05.24  131250 .98512 135.1 19.0  47d   6
2018 12 13 03  02 29 56.398   +04 14 28.52  127463 .98509 134.9 19.0  47d   6
2018 12 13 04  02 27 14.893   +04 55 16.42  123392 .98506 134.6 18.9  46d   6
2018 12 13 05  02 24 21.568   +05 38 55.27  119017 .98503 134.2 18.8  46d   6
2018 12 13 06  02 21 14.006   +06 25 58.26  114318 .98500 133.8 18.7  46d   6
2018 12 13 07  02 17 49.062   +07 17 08.03  109269 .98497 133.4 18.7  42d   5
2018 12 13 08  02 14 02.548   +08 13 20.61  103839 .98494 132.9 18.6  42d   5
2018 12 13 09  02 09 48.719   +09 15 51.53   97991 .98490 132.3 18.5  41d   5
2018 12 13 10  02 04 59.421   +10 26 25.84   91676 .98486 131.6 18.3  41d   5
2018 12 13 11  01 59 22.575   +11 47 35.28   84835 .98482 130.8 18.2  41d   5
2018 12 13 12  01 52 39.294   +13 23 09.69   77385 .98478 129.7 18.0  41d   5
2018 12 13 13  01 44 17.867   +15 19 18.97   69218 .98473 128.4 17.8  40d   5
2018 12 13 14  01 33 19.594   +17 46 49.11   60172 .98468 126.5 17.6  40d   5
2018 12 13 15  01 17 38.982   +21 06 45.24   50002 .98462 123.8 17.2  39d   5
2018 12 13 16  00 51 36.512   +26 08 09.35   38286 .98455 119.1 16.8  38d   5
2018 12 13 17  23 50 39.883   +35 18 50.40   24193 .98447 108.6 16.1  34d   6
2018 12 13 18  16 47 13.950   +27 05 41.39    7527 .98439  51.0 16??  38d   6
2018 12 13 19  07 17 30.914   -43 19 46.07   20557 .98446 108.5 15.8  68d   2